DELTA 1 DEB, 42576

Orbit data source: Space-Track

DELTA 1 DEB, 42576 is space debris in SSO originally from a launch on Tue, 06 Nov 1973 UTC launched from the Air Force Western Test Range (AFWTR). Debris objects in space refer to the collection of defunct objects orbiting the Earth. Examples of debris include non-operational satellites, rocket bodies, and fragments generated from explosions, collisions, or faulty payload assembly.

Loading next visibility...
DELTA 1 DEB details
Identifier
42576, 1973-086HQ
Orbit
SSO
Last TLE update1 day ago
Origin
Flag of USGSFC (US)
ManufacturerUnknown
MissionSpacecraft
Bus & MotorUnknown
MassUnknown
Launch date (UTC)
1973-11-06 (51 years ago)
Launch vehicleUnknown
Launch site
Air Force Western Test Range (AFWTR)
Object type
Payload
Rocket body
Debris
Shape & HBRUnknown
Radar Cross SectionSmall (<0.1 m²)

Expand to show TLE details & history

TLE from 1 day ago
0 DELTA 1 DEB
1 42576U 73086HQ  24360.47571753  .00000187  00000-0  92058-3 0  9995
2 42576 102.2540 187.3764 0301646 295.4876  94.8823 12.76336689516745
Epoch: 2024-12-25T11:25Z
Definitive object data (Epoch: 2024-12-25T11:25:01.994Z)
Latitude32.99176°
Longitude-86.41636°
Altitude1,387.053 km
Speed7.156 km/s
True Right ascension11h 57m 14s
True Declination32° 50' 51"
Sunlit
Object was in daylight at TLE epoch
Visualization TLE readout
Latitude2.93262°
Longitude-77.89421°
Altitude1,271.031 km
Speed7.261 km/s
Apparent Right ascension14h 33m 12s
Apparent Declination-45° 45' 32"
Sunlit
Object is in daylight
Visualization observer readout
Local Sidereal Time11:04:11
Azimuth146.183° SSE
Elevation-7.591°
Doppler factor1
Orbital elements
Apogee altitude1,587.004 km
Perigee altitude1,120.544 km
Semi-major axis7,731.911 km
Eccentricity0.0301646
Inclination102.254°
RAAN187.3764°
Arg. of periapsis295.4876°
True anomaly98.3133°
Mean anomaly94.8823°
Eccentric anomaly96.59915°
Mean motion3.19237 °/min
BSTAR0.00092058
Orbital period112.77 mins
Loading maneuver chart data...
Loading historical data...
Loading historical data...
Loading historical data...
Loading historical data...
Loading historical data...
Loading historical data...
Loading historical data...

DELTA 1 DEB Visibility forecast

Observer location: undefined°, undefined

Span
Click to sort rows by Start time (UTC) header in descending order
Start Az.
Max El. time (UTC)
Max El. Az.
Max El.
End time (UTC)
End Az.
15 mins2024-12-26 11:48:47.984Z138.329° SSE2024-12-26 11:55:47.984Z55.873° ENE40.151°2024-12-26 12:03:47.984Z349.216° N
12 mins2024-12-26 13:41:47.984Z214.618° SW2024-12-26 13:46:47.984Z266.891° W27.393°2024-12-26 13:53:47.984Z323.356° NNW
6 mins2024-12-26 23:42:47.984Z70.057° E2024-12-26 23:45:47.984Z91.748° ESE13.84°2024-12-26 23:48:47.984Z113.088° SE
16 mins2024-12-27 01:29:47.984Z22.89° NE2024-12-27 01:37:47.984Z130.899° SE43.666°2024-12-27 01:45:47.984Z191.447° SSW
12 mins2024-12-27 03:21:47.984Z351.266° N2024-12-27 03:26:47.984Z309.318° NW26.203°2024-12-27 03:33:47.984Z252.695° W
9 mins2024-12-27 10:28:47.984Z82.362° E2024-12-27 10:32:47.984Z49.378° ENE18.8°2024-12-27 10:37:47.984Z11.018° NNE
|